Grande Europa — ICGE — position and weather

sailwx.info

Track history (hours):
 
Tides and Currents Weather Stations Pressure Air Temp Water Temp Dewpoint Dewpoint Depression Visibility Wind Speed Wind Dir Waves Ship Positions

Grande Europa

Last reported at 2014-Oct-30 13:15 UTC. Time now 2014-Oct-30 13:53 UTC.
Position N 49°57' W 002°20'.

Length 183 m; draft 7.9 m.

Type: Cargo ship. MMSI: 247206000.

Date/timePositionNaut miles runAvg speedWind from/ knotsBaromVisibWave heightAir tempDewpointWater temp
2014-Oct-30 13:15N 49°57' W 002°20'1216.5
2014-Oct-30 12:33N 49°53' W 002°36'1615.5
2014-Oct-30 11:34N 49°50' W 002°60'1515.5
2014-Oct-30 10:34N 49°50' W 003°24'18112.5
2014-Oct-29 20:06N 51°18' W 007°32'713.8
2014-Oct-29 19:33N 51°24' W 007°41'1413.7
2014-Oct-29 18:33N 51°33' W 007°57'1413.9
2014-Oct-29 17:33N 51°43' W 008°12'8 8.4
2014-Oct-29 16:33N 51°50' W 008°19'1 0.7
2014-Oct-29 15:33N 51°50' W 008°20'0 0.0
2014-Oct-29 14:33N 51°50' W 008°20'0 0.0
2014-Oct-29 13:33N 51°50' W 008°20'0 0.0
2014-Oct-29 12:33N 51°50' W 008°20'0 0.0
2014-Oct-29 11:33N 51°50' W 008°20'0 0.0
2014-Oct-29 10:33N 51°50' W 008°20'0 0.0
2014-Oct-29 09:33N 51°50' W 008°20'0 0.0
2014-Oct-29 08:33N 51°50' W 008°20'0 0.4
2014-Oct-29 07:33N 51°50' W 008°19'8 8.1
2014-Oct-29 06:33N 51°45' W 008°10'1717.3
2014-Oct-29 05:33N 51°42' W 007°42'1918.5
2014-Oct-29 04:33N 51°40' W 007°13'14918.6
2014-Oct-28 20:33N 51°21' W 003°16'1111.3
2014-Oct-28 19:33N 51°27' W 002°60'1110.6
2014-Oct-28 18:33N 51°30' W 002°44'0 0.5
2014-Oct-28 17:33N 51°30' W 002°43'0 0.0
2014-Oct-28 16:33N 51°30' W 002°43'0 0.0
2014-Oct-28 15:33N 51°30' W 002°43'0 0.0
2014-Oct-28 14:33N 51°30' W 002°43'0 0.0
2014-Oct-28 13:33N 51°30' W 002°43'0 0.0
2014-Oct-28 12:33N 51°30' W 002°43'0 0.0
2014-Oct-28 11:33N 51°30' W 002°43'0 0.0
2014-Oct-28 10:33N 51°30' W 002°43'0 0.0
2014-Oct-28 09:33N 51°30' W 002°43'0 0.0
2014-Oct-28 08:33N 51°30' W 002°43'0 0.0
2014-Oct-28 07:33N 51°30' W 002°43'0 0.0
2014-Oct-28 06:33N 51°30' W 002°43'0 0.0
2014-Oct-28 05:33N 51°30' W 002°43'0 0.0
2014-Oct-28 04:33N 51°30' W 002°43'0 0.0
2014-Oct-28 03:33N 51°30' W 002°43'0 0.0
2014-Oct-28 02:33N 51°30' W 002°43'0 0.0
2014-Oct-28 01:33N 51°30' W 002°43'0 0.0
2014-Oct-28 00:33N 51°30' W 002°43'0 0.0
2014-Oct-27 23:33N 51°30' W 002°43'0 0.0
2014-Oct-27 22:33N 51°30' W 002°43'1 0.5
2014-Oct-27 21:33N 51°30' W 002°44'5 5.2
2014-Oct-27 20:33N 51°28' W 002°52'1110.9
2014-Oct-27 19:33N 51°22' W 003°06'8115.1
2014-Oct-27 14:11N 50°49' W 005°04'1015.4
2014-Oct-27 13:33N 50°42' W 005°15'1615.8
2014-Oct-27 12:33N 50°32' W 005°34'69216.1
2014-Oct-25 17:26N 39°24' W 009°51'1516.7
2014-Oct-25 16:33N 39°09' W 009°51'1716.9
2014-Oct-25 15:33N 38°52' W 009°52'1616.1
2014-Oct-25 14:33N 38°36' W 009°48'1616.0
2014-Oct-25 13:33N 38°28' W 009°31'1616.5
2014-Oct-25 12:33N 38°20' W 009°12'1514.6
2014-Oct-25 11:33N 38°29' W 008°57'4 3.6
2014-Oct-25 10:29N 38°31' W 008°53'0 0.0
2014-Oct-25 09:32N 38°31' W 008°53'0 0.0
2014-Oct-25 08:32N 38°31' W 008°53'0 0.0
2014-Oct-25 07:26N 38°31' W 008°53'0 0.0
2014-Oct-25 06:32N 38°31' W 008°53'0 0.0
2014-Oct-25 05:32N 38°31' W 008°53'1 1.4
2014-Oct-25 04:33N 38°31' W 008°55'1110.5
2014-Oct-25 03:33N 38°22' W 009°02'1514.8
2014-Oct-25 02:33N 38°07' W 009°05'1515.0
2014-Oct-25 01:33N 37°52' W 009°09'1515.7
2014-Oct-25 00:34N 37°37' W 009°12'1514.9
2014-Oct-24 23:33N 37°22' W 009°16'2914.5
2014-Oct-24 21:32N 36°53' W 009°19'1714.2
2014-Oct-24 20:21N 36°43' W 009°03'1214.8
2014-Oct-24 19:33N 36°39' W 008°48'1414.6
2014-Oct-24 18:33N 36°34' W 008°31'1514.6
2014-Oct-24 17:33N 36°30' W 008°14'4515.0
2014-Oct-24 14:31N 36°16' W 007°20'8914.9
2014-Oct-24 08:34N 35°59' W 005°32'1312.8
2014-Oct-24 07:33N 36°02' W 005°17'16514.6
2014-Oct-23 20:15N 36°36' W 001°57'1815.5
2014-Oct-23 19:07N 36°47' W 001°41'4015.4
2014-Oct-23 16:31N 37°14' W 001°03'1515.6
2014-Oct-23 15:33N 37°24' W 000°48'1615.6
2014-Oct-23 14:31N 37°35' W 000°33'1415.1
2014-Oct-23 13:34N 37°47' W 000°24'1515.0
2014-Oct-23 12:34N 37°59' W 000°12'3915.8
2014-Oct-23 10:05N 38°31' E 000°15'2717.8
2014-Oct-23 08:33N 38°54' E 000°35'17215.4
2014-Oct-22 21:24N 41°14' E 002°44'1816.6
2014-Oct-22 20:20N 41°29' E 002°58'1516.8
2014-Oct-22 19:27N 41°41' E 003°10'1616.5
2014-Oct-22 18:28N 41°55' E 003°21'1616.4
2014-Oct-22 17:30N 42°08' E 003°33'1615.8
2014-Oct-22 16:28N 42°22' E 003°45'1515.4
2014-Oct-22 15:30N 42°33' E 003°58'3014.9
2014-Oct-22 13:27N 42°43' E 004°37'1616.0
2014-Oct-22 12:28N 42°45' E 004°59'3113.8
2014-Oct-22 10:14N 42°49' E 005°40'2715.0
2014-Oct-22 08:26N 42°53' E 006°17'1416.1
2014-Oct-22 07:33N 42°58' E 006°35'1716.7
2014-Oct-22 06:33N 43°07' E 006°54'1716.8
2014-Oct-22 05:33N 43°17' E 007°12'1717.2
2014-Oct-22 04:33N 43°27' E 007°31'3517.5
2014-Oct-22 02:32N 43°48' E 008°11'1717.7
2014-Oct-22 01:34N 44°03' E 008°24'1716.7
2014-Oct-22 00:33N 44°19' E 008°31'1 0.6
2014-Oct-21 23:32N 44°19' E 008°30'0 0.0
2014-Oct-21 19:32N 44°19' E 008°30'0 0.0
2014-Oct-21 18:23N 44°19' E 008°30'0 0.0
2014-Oct-21 17:08N 44°19' E 008°30'2 3.8
2014-Oct-21 16:34N 44°18' E 008°32'1817.9
2014-Oct-21 15:33N 44°02' E 008°45'1818.4
2014-Oct-21 14:33N 43°47' E 008°59'1818.2
2014-Oct-21 13:33N 43°31' E 009°12'1817.7
2014-Oct-21 12:33N 43°16' E 009°26'1817.6
2014-Oct-21 11:33N 43°01' E 009°38'3817.6
2014-Oct-21 09:24N 42°35' E 010°15'1717.7
2014-Oct-21 08:26N 42°23' E 010°32'  
Track history (hours):
 
Tides and Currents Weather Stations Pressure Air Temp Water Temp Dewpoint Dewpoint Depression Visibility Wind Speed Wind Dir Waves Ship Positions

Grande Europa

Last reported at 2014-Oct-30 13:15 UTC. Time now 2014-Oct-30 13:53 UTC.
Position N 49°57' W 002°20'.

Length 183 m; draft 7.9 m.

Type: Cargo ship. MMSI: 247206000.

Date/timePositionNaut miles runAvg speedWind from/ knotsBaromVisibWave heightAir tempDewpointWater temp
2014-Oct-30 13:15N 49°57' W 002°20'1216.5
2014-Oct-30 12:33N 49°53' W 002°36'1615.5
2014-Oct-30 11:34N 49°50' W 002°60'1515.5
2014-Oct-30 10:34N 49°50' W 003°24'18112.5
2014-Oct-29 20:06N 51°18' W 007°32'713.8
2014-Oct-29 19:33N 51°24' W 007°41'1413.7
2014-Oct-29 18:33N 51°33' W 007°57'1413.9
2014-Oct-29 17:33N 51°43' W 008°12'8 8.4
2014-Oct-29 16:33N 51°50' W 008°19'1 0.7
2014-Oct-29 15:33N 51°50' W 008°20'0 0.0
2014-Oct-29 14:33N 51°50' W 008°20'0 0.0
2014-Oct-29 13:33N 51°50' W 008°20'0 0.0
2014-Oct-29 12:33N 51°50' W 008°20'0 0.0
2014-Oct-29 11:33N 51°50' W 008°20'0 0.0
2014-Oct-29 10:33N 51°50' W 008°20'0 0.0
2014-Oct-29 09:33N 51°50' W 008°20'0 0.0
2014-Oct-29 08:33N 51°50' W 008°20'0 0.4
2014-Oct-29 07:33N 51°50' W 008°19'8 8.1
2014-Oct-29 06:33N 51°45' W 008°10'1717.3
2014-Oct-29 05:33N 51°42' W 007°42'1918.5
2014-Oct-29 04:33N 51°40' W 007°13'14918.6
2014-Oct-28 20:33N 51°21' W 003°16'1111.3
2014-Oct-28 19:33N 51°27' W 002°60'1110.6
2014-Oct-28 18:33N 51°30' W 002°44'0 0.5
2014-Oct-28 17:33N 51°30' W 002°43'0 0.0
2014-Oct-28 16:33N 51°30' W 002°43'0 0.0
2014-Oct-28 15:33N 51°30' W 002°43'0 0.0
2014-Oct-28 14:33N 51°30' W 002°43'0 0.0
2014-Oct-28 13:33N 51°30' W 002°43'0 0.0
2014-Oct-28 12:33N 51°30' W 002°43'0 0.0
2014-Oct-28 11:33N 51°30' W 002°43'0 0.0
2014-Oct-28 10:33N 51°30' W 002°43'0 0.0
2014-Oct-28 09:33N 51°30' W 002°43'0 0.0
2014-Oct-28 08:33N 51°30' W 002°43'0 0.0
2014-Oct-28 07:33N 51°30' W 002°43'0 0.0
2014-Oct-28 06:33N 51°30' W 002°43'0 0.0
2014-Oct-28 05:33N 51°30' W 002°43'0 0.0
2014-Oct-28 04:33N 51°30' W 002°43'0 0.0
2014-Oct-28 03:33N 51°30' W 002°43'0 0.0
2014-Oct-28 02:33N 51°30' W 002°43'0 0.0
2014-Oct-28 01:33N 51°30' W 002°43'0 0.0
2014-Oct-28 00:33N 51°30' W 002°43'0 0.0
2014-Oct-27 23:33N 51°30' W 002°43'0 0.0
2014-Oct-27 22:33N 51°30' W 002°43'1 0.5
2014-Oct-27 21:33N 51°30' W 002°44'5 5.2
2014-Oct-27 20:33N 51°28' W 002°52'1110.9
2014-Oct-27 19:33N 51°22' W 003°06'8115.1
2014-Oct-27 14:11N 50°49' W 005°04'1015.4
2014-Oct-27 13:33N 50°42' W 005°15'1615.8
2014-Oct-27 12:33N 50°32' W 005°34'69216.1
2014-Oct-25 17:26N 39°24' W 009°51'1516.7
2014-Oct-25 16:33N 39°09' W 009°51'1716.9
2014-Oct-25 15:33N 38°52' W 009°52'1616.1
2014-Oct-25 14:33N 38°36' W 009°48'1616.0
2014-Oct-25 13:33N 38°28' W 009°31'1616.5
2014-Oct-25 12:33N 38°20' W 009°12'1514.6
2014-Oct-25 11:33N 38°29' W 008°57'4 3.6
2014-Oct-25 10:29N 38°31' W 008°53'0 0.0
2014-Oct-25 09:32N 38°31' W 008°53'0 0.0
2014-Oct-25 08:32N 38°31' W 008°53'0 0.0
2014-Oct-25 07:26N 38°31' W 008°53'0 0.0
2014-Oct-25 06:32N 38°31' W 008°53'0 0.0
2014-Oct-25 05:32N 38°31' W 008°53'1 1.4
2014-Oct-25 04:33N 38°31' W 008°55'1110.5
2014-Oct-25 03:33N 38°22' W 009°02'1514.8
2014-Oct-25 02:33N 38°07' W 009°05'1515.0
2014-Oct-25 01:33N 37°52' W 009°09'1515.7
2014-Oct-25 00:34N 37°37' W 009°12'1514.9
2014-Oct-24 23:33N 37°22' W 009°16'2914.5
2014-Oct-24 21:32N 36°53' W 009°19'1714.2
2014-Oct-24 20:21N 36°43' W 009°03'1214.8
2014-Oct-24 19:33N 36°39' W 008°48'1414.6
2014-Oct-24 18:33N 36°34' W 008°31'1514.6
2014-Oct-24 17:33N 36°30' W 008°14'4515.0
2014-Oct-24 14:31N 36°16' W 007°20'8914.9
2014-Oct-24 08:34N 35°59' W 005°32'1312.8
2014-Oct-24 07:33N 36°02' W 005°17'16514.6
2014-Oct-23 20:15N 36°36' W 001°57'1815.5
2014-Oct-23 19:07N 36°47' W 001°41'4015.4
2014-Oct-23 16:31N 37°14' W 001°03'1515.6
2014-Oct-23 15:33N 37°24' W 000°48'1615.6
2014-Oct-23 14:31N 37°35' W 000°33'1415.1
2014-Oct-23 13:34N 37°47' W 000°24'1515.0
2014-Oct-23 12:34N 37°59' W 000°12'3915.8
2014-Oct-23 10:05N 38°31' E 000°15'2717.8
2014-Oct-23 08:33N 38°54' E 000°35'17215.4
2014-Oct-22 21:24N 41°14' E 002°44'1816.6
2014-Oct-22 20:20N 41°29' E 002°58'1516.8
2014-Oct-22 19:27N 41°41' E 003°10'1616.5
2014-Oct-22 18:28N 41°55' E 003°21'1616.4
2014-Oct-22 17:30N 42°08' E 003°33'1615.8
2014-Oct-22 16:28N 42°22' E 003°45'1515.4
2014-Oct-22 15:30N 42°33' E 003°58'3014.9
2014-Oct-22 13:27N 42°43' E 004°37'1616.0
2014-Oct-22 12:28N 42°45' E 004°59'3113.8
2014-Oct-22 10:14N 42°49' E 005°40'2715.0
2014-Oct-22 08:26N 42°53' E 006°17'1416.1
2014-Oct-22 07:33N 42°58' E 006°35'1716.7
2014-Oct-22 06:33N 43°07' E 006°54'1716.8
2014-Oct-22 05:33N 43°17' E 007°12'1717.2
2014-Oct-22 04:33N 43°27' E 007°31'3517.5
2014-Oct-22 02:32N 43°48' E 008°11'1717.7
2014-Oct-22 01:34N 44°03' E 008°24'1716.7
2014-Oct-22 00:33N 44°19' E 008°31'1 0.6
2014-Oct-21 23:32N 44°19' E 008°30'0 0.0
2014-Oct-21 19:32N 44°19' E 008°30'0 0.0
2014-Oct-21 18:23N 44°19' E 008°30'0 0.0
2014-Oct-21 17:08N 44°19' E 008°30'2 3.8
2014-Oct-21 16:34N 44°18' E 008°32'1817.9
2014-Oct-21 15:33N 44°02' E 008°45'1818.4
2014-Oct-21 14:33N 43°47' E 008°59'1818.2
2014-Oct-21 13:33N 43°31' E 009°12'1817.7
2014-Oct-21 12:33N 43°16' E 009°26'1817.6
2014-Oct-21 11:33N 43°01' E 009°38'3817.6
2014-Oct-21 09:24N 42°35' E 010°15'1717.7
2014-Oct-21 08:26N 42°23' E 010°32'  

Dump ship's entire track history